Voltar ao catálogo

ARIANE 42P DEB *

AtivoUNKNOWN
NORAD 47108·DEBRIS·🇫🇷 France

Lançado Aug 10, 1992 de Guiana Space Centre

Loading…

Próximas Passagens (próximas 24 horas)

TLE

AtualizadoSource: Space-Track

Época: Sep 7, 2026, 14:43 UTC

1 47108U 92052P   26250.61345942  .00000415  00000-0  23979-3 0  9990
2 47108  65.8141 209.2891 1176572 256.5207  90.2277 12.44798221109472

Acompanhe ARIANE 42P DEB * em tempo real com AllMySat

Download on the App Store